Location: Laverne
(36.7100°N, 99.8930°W)
Time: 18:53:14
(UTC-05:00)

Daily predictions for brighter satellites

Satellite Brightness Start Highest point End
(mag) Time Altitude Azimuth Time Altitude Azimuth Time Altitude Azimuth
Meteor 1-25 Rocket 4.4 20:48:25 10° S 20:54:08 59° E 20:59:52 10° NNE
SJ-6B 3.1 20:50:13 10° S 20:54:11 75° WSW 20:58:17 10° NNW
Intercosmos 25 Rocket 2.8 20:54:20 10° N 20:57:44 69° E 21:00:52 10° SSE
ISS -1.2 20:56:15 10° W 20:58:22 16° SW 21:00:28 10° S
Cosmos 1812 2.8 20:57:33 10° N 21:01:23 58° E 21:05:12 10° SSE
Cosmos 2360 4.4 20:57:31 10° S 21:02:59 49° ESE 21:08:27 10° NNE
Cosmos 1939 Rocket 4.2 21:00:13 10° ESE 21:03:23 23° ENE 21:06:31 10° NNE
Helios 1B rocket 4.1 21:02:10 10° ENE 21:04:34 15° E 21:06:56 10° SE
OAO 3 Rocket 4.2 21:02:26 10° W 21:06:44 34° SSW 21:10:58 10° SE
USA 267 4.1 21:01:09 10° SSE 21:07:23 47° SW 21:13:41 10° NW
Okean 2 Rocket 3.3 21:04:23 10° S 21:08:42 52° E 21:13:06 10° NNE
Cosmos 2297 Rocket 3.0 21:07:36 10° NNW 21:13:06 53° WSW 21:18:34 10° S
Cosmos 1452 Rocket 3.9 21:08:30 10° S 21:13:26 42° ESE 21:18:23 10° NNE
Okean 3 4.3 21:10:04 10° NNW 21:14:13 54° W 21:18:23 10° S
SEDSat Delta rocket 4.5 21:08:43 10° W 21:15:13 49° S 21:20:45 13° ESE
Okean 1 3.7 21:12:25 10° N 21:16:13 43° E 21:20:00 10° SSE
Cosmos 839 Rocket 4.0 21:14:18 10° S 21:20:36 57° ESE 21:26:37 10° NE
Lacrosse 5 rocket 3.0 21:19:35 10° N 21:22:18 19° NE 21:24:42 12° E
Resurs 1-3 3.6 21:20:01 10° SSE 21:24:23 87° WSW 21:28:48 10° NNW
Cosmos 407 Rocket 3.5 21:20:10 10° NNW 21:25:32 72° ENE 21:30:50 10° SSE
EXPRESS MD2 2.4 21:23:15 10° SW 21:25:36 86° SE 21:29:24 10° NE
Cosmos 1190 Rocket 4.0 21:21:02 10° NNW 21:26:19 82° ENE 21:31:36 10° SSE
ATLAS 2AS CENTAUR R/B 3.9 21:22:27 10° SSE 21:28:11 24° ESE 21:34:11 10° ENE
Cosmos 44 4.1 21:25:27 10° N 21:29:23 30° NE 21:31:59 18° ESE
Helios 1A 3.9 21:28:44 17° ESE 21:31:16 32° ENE 21:35:03 10° N
DELTA 2 R/B (1) 3.8 21:25:58 10° WNW 21:31:34 71° N 21:36:11 15° E
GPS 2-05 Rocket1 2.9 21:30:17 10° WSW 21:33:31 50° SSE 21:35:11 24° ESE
NOSS 3-1 (A) 3.8 21:29:03 10° SW 21:34:42 67° NW 21:41:01 10° NNE
Cosmos 2322 Rocket 2.7 21:30:01 10° SSE 21:35:07 36° ESE 21:40:16 10° NE
BREEZE-M DEB (TANK) 3.6 21:32:19 10° NW 21:35:47 72° NE 21:45:26 17° ESE
Cosmos 1441 Rocket 3.7 21:34:24 10° NNW 21:38:04 57° W 21:41:43 10° S
Cosmos 405 Rocket 4.5 21:37:13 10° NNW 21:40:39 32° W 21:44:08 10° SSW
Cosmos 2263 Rocket 3.7 21:37:38 10° N 21:41:48 20° NE 21:44:12 16° E
Cosmos 676 Rocket 4.0 21:36:52 10° NNW 21:42:10 67° ENE 21:46:07 18° SSE
SL-16 R/B 2.5 21:38:19 10° S 21:43:36 42° ESE 21:48:55 10° NE
Resurs 01 Rocket 2.9 21:44:00 10° S 21:48:12 41° W 21:52:26 10° NNW
S3M 4.0 21:42:29 10° N 21:48:42 63° E 21:53:56 15° SSE
CZ-4B DEB 3.7 21:50:11 26° ENE 21:50:11 26° ENE 21:52:24 10° NNE
Cosmos 1553 Rocket 3.9 21:46:52 10° N 21:53:03 74° E 21:58:20 14° SSE
Spot 2 Rocket 4.5 21:50:39 10° S 21:55:32 46° W 22:00:27 10° NNW
Meteor 1-13 Rocket 4.3 21:51:32 10° N 21:57:29 68° E 22:01:35 21° SSE
SJ-11-01 4.3 21:54:40 16° S 21:58:23 84° WSW 22:03:05 10° NNW
Cosmos 2266 Rocket 4.1 21:54:33 15° SSE 21:59:19 51° E 22:05:07 10° NNE
Okean 1 Rocket 3.7 22:01:25 33° E 22:01:39 34° E 22:05:36 10° NNE
SeaSat 1 4.2 21:59:13 10° N 22:03:39 35° WNW 22:08:05 10° WSW
H-2A R/B 3.5 22:03:02 20° ENE 22:03:41 20° ENE 22:07:19 10° NNE
Meteor 1-5 Rocket 4.4 22:02:22 29° SE 22:04:31 43° E 22:09:30 10° NNE
Atlas Centaur 2 2.9 21:57:06 10° WSW 22:04:36 51° S 22:07:34 31° ESE
Cosmos 1954 Rocket 4.0 22:00:38 10° NNW 22:05:59 90° W 22:09:00 27° SSE
Cosmos 1140 Rocket 3.4 22:01:00 10° NNW 22:06:15 76° ENE 22:08:46 31° SSE
Meteor 1-29 2.8 22:03:50 10° NNE 22:07:14 66° E 22:07:40 58° SE
Tiangong 1 2.9 22:06:33 10° WNW 22:08:48 22° N 22:09:34 19° NNE
Cosmos 2151 Rocket 4.0 22:05:27 10° SSW 22:09:48 63° W 22:14:10 10° N
CZ-4C R/B 4.0 22:03:15 10° NW 22:10:07 40° WSW 22:17:27 10° S
Cosmos 2360 Rocket 3.3 22:12:28 25° E 22:12:28 25° E 22:15:55 10° NE
Cosmos 1980 Rocket 3.8 22:07:13 10° SW 22:12:18 35° WNW 22:17:25 10° N
Cosmos 1300 Rocket 3.4 22:10:26 32° S 22:12:20 72° E 22:16:38 10° NNE
NOSS 2-3 (C) 3.7 22:08:06 10° SSW 22:12:35 59° ESE 22:17:41 10° NE
Cosmos 44 Rocket 3.2 22:10:05 10° NNW 22:14:51 87° WSW 22:16:28 42° SSE
Meteor 2-4 Rocket 3.6 22:09:26 10° N 22:14:57 67° E 22:17:18 35° SSE
Cosmos 1741 Rocket 4.3 22:11:38 10° N 22:16:43 49° ENE 22:17:54 41° ESE
Cosmos 614 Rocket 3.8 22:13:40 10° NNW 22:18:47 85° ENE 22:20:38 41° SSE
YAOGAN 6 3.2 22:18:33 33° SSW 22:19:47 50° W 22:23:16 10° NNW
ERBS 4.5 22:18:00 10° WSW 22:21:03 28° NW 22:24:07 10° NNE
MetOp-B 4.2 22:22:33 44° SE 22:23:57 59° ENE 22:29:12 10° N
USA 245 4.5 22:23:53 42° E 22:24:47 45° ENE 22:29:28 10° N
SL-08 RB Rocket 4.4 22:25:29 37° ENE 22:25:29 37° ENE 22:29:35 10° N
NOAA 11 4.1 22:24:56 39° SSE 22:27:03 83° ENE 22:32:35 10° N
ERS-1 Rocket 2.9 22:26:00 49° SSE 22:27:20 76° ENE 22:32:22 10° N
SPOT 5 3.4 22:27:38 40° E 22:27:51 40° ENE 22:32:21 10° N
Cosmos 1025 Rocket 3.9 22:26:02 10° N 22:29:13 34° NE 22:29:13 34° NE
Meteor 1-11 Rocket 4.3 22:25:43 10° SSW 22:31:31 59° W 22:37:14 10° N
Lacrosse 54.522:41:50NE22:41:50NE22:29:45SSW
Helios 1B rocket 3.9 22:36:11 10° N 22:39:57 36° WNW 22:43:43 10° SW
NOSS 2-3 (D) 4.2 22:47:41 10° SW 22:52:15 62° NW 22:57:29 10° NNE
Cosmos 1110 Rocket 4.1 22:53:08 58° NE 22:53:08 58° NE 22:57:27 10° NNE
Cosmos 1536 4.4 22:51:39 25° WSW 22:53:13 34° W 22:56:58 10° NNW
ATLAS 3B R/B 3.5 22:48:24 10° NNW 22:54:24 33° NE 22:55:32 31° ENE
Centaur D AC-29 4.3 22:54:03 10° SW 22:58:07 15° SSW 22:58:07 15° SSW
Cosmos 1850 Rocket 4.3 22:56:09 10° NNW 23:01:24 60° WSW 23:01:57 57° SW
Lacrosse 5 rocket 2.7 22:58:01 10° NW 23:00:24 32° W 23:00:24 32° W
SPOT 1/Viking Rocket 3.6 23:04:46 68° NE 23:04:46 68° NE 23:09:33 10° N
Cosmos 1331 Rocket 4.3 23:11:20 57° NNE 23:11:20 57° NNE 23:15:30 10° NNE
Cosmos 1244 Rocket 4.3 23:14:20 76° SSW 23:14:50 85° W 23:21:01 10° N
DELTA 2 R/B (1) 4.2 23:12:32 10° WNW 23:16:56 48° WSW 23:16:56 48° WSW
ATLAS 2AS CENTAUR R/B 3.2 23:10:51 10° SW 23:18:26 70° NW 23:26:33 10° NNE
Cosmos 2322 Rocket 4.0 23:14:14 10° WSW 23:19:09 29° WNW 23:24:06 10° N
ARGOS 3.9 23:23:23 44° WSW 23:23:40 45° W 23:28:47 10° NNW
Cosmos 2263 Rocket 2.6 23:20:32 10° NNW 23:25:54 54° W 23:25:54 54° W
SL-16 R/B 4.2 23:23:14 10° WSW 23:27:50 25° WNW 23:32:28 10° N
Cosmos 2322 4.1 23:34:24 60° NNW 23:34:24 60° NNW 23:39:16 10° NNE
Terra 3.2 23:36:46 34° N 23:36:46 34° N 23:39:31 10° N
Cosmos 1844 Rocket 3.9 23:30:14 10° N 23:34:09 32° NNE 23:34:09 32° NNE
COSMOS 2428 4.1 23:42:04 30° NNE 23:42:04 30° NNE 23:44:50 10° NNE
H-2A R/B 3.1 23:43:41 39° WNW 23:43:41 39° WNW 23:47:36 10° NNW
Cosmos 2219 Rocket 4.3 23:47:14 17° NE 23:47:14 17° NE 23:48:29 10° NE
Cosmos 2333 Rocket 4.4 23:57:37 15° NE 23:57:37 15° NE 23:58:38 10° NE
Atlas Centaur 2 4.0 23:47:07 10° W 23:50:12 24° WSW 23:50:12 24° WSW
